Content
SEND FEEDBACK

Daily
Averages
Monthly
Summary
United States of America

ASHVILLE, ALABAMA


Home > North America > United States > Alabama
Elevation: 57 feet     Latitude: 33 50N     Longitude: 086 16W

WEATHER
 
SELECT A DAY
Number of Records: 434,276;   Date Range: 1/1/95 - 9/16/14
 
SHARE

PRINT THIS DATA

[ ← Previous Day ]
WEATHER ALMANAC - JANUARY 31, 2013
[ Next Day → ]
[ °C ]   °F
Weather ElementAverageHighLow
Temperature39.6 °F48.2 °F (1:36 pm)30.2 °F (5:35 am)
Dewpoint24.9 °F26.6 °F (8:15 am)21.2 °F (11:55 am)
Humidity57.3 %80 % (5:35 am)37 % (1:55 pm)
Barometer30.12 in30.19 in (10:55 am)29.99 in (12:35 am)
Wind Speed8.5 mph17.3 mph (2:15 am)
Wind Gust24.2 mph (1:15 am)
Weather ElementAverage
Visibility10 mi
Wind DirectionWSW (255.5 °)

Weather ElementTotal
Precipitation---
Heating Degree Days25.8 (Base 65)
Averaged from 65 records on January 31, 2013
WEATHER CONDITIONS BREAKOUT
WIND DIRECTION BREAKOUT
WEATHER BY HOUR - JANUARY 31, 2013
[ °C ]   °F
Local TimeTemperatureDewpointHumidityBarometerVisibilityWind DirectionWind SpeedGust SpeedPrecipitationEventsConditions
12:35 AM37.4 °F24.8 °F60 %29.99 in10.0 miWNW (290°)12.7 mph21.9 mphMostly Cloudy
12:55 AM37.4 °F24.8 °F60 %30.00 in10.0 miWNW (290°)13.8 mph21.9 mphOvercast
1:15 AM37.4 °F24.8 °F60 %30.00 in10.0 miWest (270°)11.5 mph24.2 mphOvercast
1:35 AM37.4 °F24.8 °F60 %30.01 in10.0 miWest (280°)8.1 mphOvercast
2:15 AM35.6 °F23.0 °F60 %30.02 in10.0 miWest (280°)17.3 mphPartly Cloudy
2:35 AM35.6 °F23.0 °F60 %30.02 in10.0 miWNW (290°)10.4 mph19.6 mphClear
2:55 AM35.6 °F23.0 °F60 %30.02 in10.0 miWNW (290°)9.2 mph19.6 mphPartly Cloudy
3:15 AM35.6 °F23.0 °F60 %30.03 in10.0 miWest (280°)10.4 mphClear
3:35 AM33.8 °F23.0 °F65 %30.04 in10.0 miWest (280°)8.1 mphClear
3:55 AM33.8 °F23.0 °F65 %30.04 in10.0 miWNW (290°)6.9 mphPartly Cloudy
4:15 AM33.8 °F24.8 °F70 %30.04 in10.0 miWest (270°)9.2 mphPartly Cloudy
4:35 AM33.8 °F24.8 °F70 %30.04 in10.0 miWest (270°)11.5 mphClear
4:55 AM33.8 °F24.8 °F70 %30.06 in10.0 miWSW (240°)4.6 mphClear
5:15 AM33.8 °F24.8 °F70 %30.07 in10.0 miSW (230°)5.8 mphClear
5:35 AM30.2 °F24.8 °F80 %30.07 in10.0 miWSW (250°)6.9 mphClear
5:55 AM32.0 °F24.8 °F75 %30.08 in10.0 miWSW (240°)5.8 mphClear
6:15 AM30.2 °F24.8 °F80 %30.08 in10.0 miWSW (240°)4.6 mphClear
6:35 AM32.0 °F24.8 °F75 %30.09 in10.0 miWest (260°)9.2 mphClear
6:55 AM32.0 °F24.8 °F75 %30.10 in10.0 miWest (260°)8.1 mphClear
7:15 AM33.8 °F24.8 °F70 %30.10 in10.0 miWest (270°)8.1 mphClear
7:35 AM33.8 °F24.8 °F70 %30.11 in10.0 miWest (270°)5.8 mphClear
7:55 AM33.8 °F24.8 °F70 %30.11 in10.0 miWest (280°)6.9 mphClear
8:15 AM35.6 °F26.6 °F70 %30.11 in10.0 miWNW (290°)9.2 mphClear
8:35 AM35.6 °F26.6 °F70 %30.12 in10.0 miWest (260°)9.2 mphClear
8:55 AM37.4 °F26.6 °F65 %30.14 in10.0 miWest (260°)15.0 mphPartly Cloudy
9:15 AM37.4 °F26.6 °F65 %30.15 in10.0 miWest (270°)12.7 mph18.4 mphPartly Cloudy
9:35 AM39.2 °F26.6 °F61 %30.17 in10.0 miWest (270°)13.8 mph18.4 mphPartly Cloudy
9:55 AM39.2 °F26.6 °F61 %30.18 in10.0 miWest (280°)15.0 mph21.9 mphPartly Cloudy
10:15 AM39.2 °F26.6 °F61 %30.18 in10.0 miWest (280°)10.4 mphClear
10:35 AM39.2 °F24.8 °F56 %30.18 in10.0 miWest (260°)12.7 mph17.3 mphClear
10:55 AM42.8 °F24.8 °F49 %30.19 in10.0 miWNW (300°)13.8 mph18.4 mphClear
11:15 AM42.8 °F23.0 °F46 %30.19 in10.0 miNW (310°)9.2 mph20.7 mphClear
11:35 AM42.8 °F26.6 °F53 %30.18 in10.0 miWest (280°)11.5 mph17.3 mphClear
11:55 AM44.6 °F21.2 °F39 %30.17 in10.0 miNW (320°)6.9 mph17.3 mphClear
12:15 PM44.6 °F24.8 °F46 %30.17 in10.0 miWNW (300°)10.4 mph17.3 mphClear
12:35 PM46.4 °F26.6 °F46 %30.17 in10.0 miNW (310°)8.1 mph18.4 mphClear
12:55 PM46.4 °F23.0 °F40 %30.16 in10.0 miNW (310°)8.1 mph17.3 mphClear
1:15 PM46.4 °F24.8 °F43 %30.15 in10.0 miWest (270°)8.1 mphClear
1:36 PM48.2 °F24.8 °F40 %30.15 in10.0 miNW (310°)12.7 mph20.7 mphClear
1:55 PM48.2 °F23.0 °F37 %30.15 in10.0 miWest (280°)9.2 mphClear
2:15 PM48.2 °F24.8 °F40 %30.14 in10.0 miWest (280°)9.2 mph17.3 mphClear
2:35 PM48.2 °F24.8 °F40 %30.13 in10.0 miWSW (240°)10.4 mphClear
2:55 PM48.2 °F24.8 °F40 %30.14 in10.0 miWest (260°)10.4 mph18.4 mphClear
3:15 PM48.2 °F23.0 °F37 %30.14 in10.0 miWest (280°)8.1 mphClear
3:35 PM48.2 °F24.8 °F40 %30.13 in10.0 miWSW (250°)12.7 mphClear
3:55 PM48.2 °F24.8 °F40 %30.13 in10.0 miWest (280°)9.2 mph18.4 mphClear
4:15 PM48.2 °F24.8 °F40 %30.12 in10.0 miWSW (240°)11.5 mphClear
4:35 PM48.2 °F24.8 °F40 %30.13 in10.0 miSW (230°)6.9 mphClear
4:55 PM46.4 °F23.0 °F40 %30.13 in10.0 miSW (230°)8.1 mphClear
5:15 PM46.4 °F23.0 °F40 %30.12 in10.0 miWSW (240°)8.1 mphClear
5:35 PM44.6 °F23.0 °F43 %30.13 in10.0 miSSW (210°)3.5 mphClear
5:55 PM42.8 °F24.8 °F49 %30.13 in10.0 miSSW (210°)4.6 mphClear
6:15 PM42.8 °F24.8 °F49 %30.13 in10.0 miSW (220°)4.6 mphClear
6:35 PM39.2 °F24.8 °F56 %30.14 in10.0 miWSW (240°)4.6 mphClear
6:55 PM37.4 °F26.6 °F65 %30.15 in10.0 miWSW (250°)4.6 mphClear
7:15 PM35.6 °F26.6 °F70 %30.15 in10.0 miWSW (240°)4.6 mphClear
7:35 PM35.6 °F26.6 °F70 %30.16 in10.0 miWSW (250°)3.5 mphClear
8:15 PM35.6 °F26.6 °F70 %30.15 in10.0 miCalmClear
8:35 PM37.4 °F26.6 °F65 %30.16 in10.0 miCalmClear
9:15 PM35.6 °F26.6 °F70 %30.16 in10.0 miSW (230°)3.5 mphClear
9:35 PM39.2 °F26.6 °F61 %30.16 in10.0 miWSW (240°)5.8 mphClear
10:15 PM39.2 °F26.6 °F61 %30.17 in10.0 miSW (230°)6.9 mphClear
10:35 PM39.2 °F24.8 °F56 %30.17 in10.0 miSW (220°)6.9 mphClear
11:15 PM41.0 °F26.6 °F57 %30.16 in10.0 miSW (230°)6.9 mphClear
11:35 PM41.0 °F24.8 °F53 %30.16 in10.0 miSW (230°)4.6 mphClear
Hourly data recorded from KGAD, located miles away from Ashville, Alabama







STORIES FROM OUR PARTNERS